Probability
0 0 0 0 0 0 0 0 0 0 0 0 0 0 0 0 0 0 0 0 0 0 0 0 0 0 0 0 0 0 0 0 0 0 0 0 0 0 0 0 0 0 0
0 0 0 0 0 0 0 0 0 0 0 0 0 0 0 0 0 0 0 0 0 0 0 0 0 0 0 0 0 0 0 0 0 0 0 0 0 0 0 0 0 0 0
0 0 0 0 0 0 0 0 0 0 0 0 0 0 0 0 0 0 0 0 0 0 0 0 0 0 0 0 0 0 0 0 0 0 0 0 0 0 0 0 0 0 0
0 0 0 0 0 0 0 0 0 0 0 0 0 0 0 0 0 0 0 0 0 0 0 0 0 0 0 0 0 0 0 0 0 0 0 0 0 0 0 0 0 0 0
0 0 0 0 0 0 0 0 0 0 0 0 0 0 0 0 0 0 0 0 0 0 0 0 0 0 0 0 0 0 0 0 0 0 0 0 0 0 0 0 0 0 0
0 0 0 0 0 0 0 0 0 0 0 0 0 0 0 0 0 0 0 0 0 0 0 0 0 0 0 0 0 0 0 0 0 0 0 0 0 0 0 0 0 0 0
0 0 0 0 0 0 0 0 0 0 0 0 0 0 0 0 0 0 0 0 0 0 0 0 0 0 0 0 0 0 0 0 0 0 0 0 0 0 0 0 0 0 0
0 0 0 0 0 0 0 0 0 0 0 0 0 0 0 0 0 0 0 0 0 0 0 0 0 0 0 0 0 0 0 0 0 0 0 0 0 0 0 0 0 0 0
0 0 0 0 0 0 0 0 0 0 0 0 0 0 0 0 0 0 0 0 0 0 0 0 0 0 0 0 0 0 0 0 0 0 0 0 0 0 0 0 0 0 0
0 0 0 0 0 0 0 0 0 0 0 0 0 0 0 0 0 0 0 0 0 0 0 0 0 0 0 0 0 0 0 0 0 0 0 0 0 0 0 0 0 0 0
0 0 0 0 0 0 0 0 0 0 0 0 0 0 0 0 0 0 0 0 0 0 0 0 0 0 0 0 0 0 0 0 0 0 0 0 0 0 0 0 0 0 0
0 0 0 0 0 0 0 0 0 0 0 0 0 0 0 0 0 0 0 0 0 0 0 0 0 0 0 0 0 0 0 0 0 0 0 0 0 0 0 0 0 0 0
0 0 0 0 0 0 0 0 0 0 0 0 0 0 0 0 0 0 0 0 0 0 0 0 0 0 0 0 0 0 0 0 0 0 0 0 0 0 0 0 0 0 0
0 0 0 0 0 0 0 0 0 0 0 0 0 0 0 0 0 0 0 0 0 0 0 0 0 0 0 0 0 0 0 0 0 0 0 0 0 0 0 0 0 0 0
0 0 0 0 0 0 0 0 0 0 0 0 0 0 0 0 0 0 0 0 0 0 0 0 0 0 0 0 0 0 0 0 0 0 0 0 0 0 0 0 0 0 0
0 0 0 0 0 0 0 0 0 0 0 0 0 0 0 0 0 0 0 0 0 0 0 0 0 0 0 0 0 0 0 0 0 0 0 0 0 0 0 0 0 0 0
0 0 0 0 0 0 0 0 0 0 0 0 0 0 0 0 0 0 0 0 0 0 0 0 0 0 0 0 0 0 0 0 0 0 0 0 0 0 0 0 0 0 0
0 0 0 0 0 0 0 0 0 0 0 0 0 0 0 0 0 0 0 0 0 0 0 0 0 0 0 0 0 0 0 0 0 0 0 0 0 0 0 0 0 0 0
0 0 0 0 0 0 0 0 0 0 0 0 0 0 0 0 0 0 0 0 0 0 0 0 0 0 0 0 0 0 0 0 0 0 0 0 0 0 0 0 0 0 0
0 0 0 0 0 0 0 0 0 0 0 0 0 0 0 0 0 0 0 0 0 0 0 0 0 0 0 0 0 0 0 0 0 0 0 0 0 0 0 0 0 0 0
0 0 0 0 0 0 0 0 0 0 0 0 0 0 0 0 0 0 0 0 0 0 0 0 0 0 0 0 0 0 0 0 0 0 0 0 0 0 0 0 0 0 0
0 0 0 0 0 0 0 0 0 0 0 0 0 0 0 0 0 0 0 0 0 0 0 0 0 0 0 0 0 0 0 0 0 0 0 0 0 0 0 0 0 0 0
0 0 0 0 0 0 0 0 0 0 0 0 0 0 0 0 0 0 0 0 0 0 0 0 0 0 0 0 0 0 0 0 0 0 0 0 0 0 0 0 0 0 0
0 0 0 0 0 0 0 0 0 0 0 0 0 0 0 0 0 0 0 0 0 0 0 0 0 0 0 0 0 0 0 0 0 0 0 0 0 0 0 0 0 0 0
0 0 0 0 0 0 0 0 0 0 0 0 0 0 0 0 0 0 0 0 0 0 0 0 0 0 0 0 0 0 0 0 0 0 0 0 0 0 0 0 0 0 0
0 0 0 0 0 0 0 0 0 0 0 0 0 0 0 0 0 0 0 0 0 0 0 0 0 0 0 0 0 0 0 0 0 0 0 0 0 0 0 0 0 0 0
Height
5632 5630 5627 5625 5624 5623 5623 5623 5623 5623 5624 5625 5625 5626 5627 5629 5631 5634 5636 5639 5641 5643 5645 5648 5651 5653 5654 5655 5656 5657 5658 5658 5659 5661 5660 5660 5658 5657 5655 5654 5652 5651 5649
5627 5624 5622 5620 5618 5617 5616 5616 5616 5616 5616 5616 5616 5617 5618 5619 5621 5623 5625 5627 5629 5631 5633 5635 5637 5639 5640 5641 5642 5642 5643 5643 5643 5644 5645 5644 5643 5641 5640 5639 5637 5636 5634
5624 5621 5618 5616 5614 5612 5611 5610 5609 5609 5608 5608 5609 5609 5609 5610 5611 5612 5614 5616 5617 5619 5621 5623 5624 5626 5627 5628 5628 5628 5628 5628 5628 5628 5628 5627 5626 5624 5624 5623 5622 5621 5619
5621 5618 5615 5613 5611 5609 5607 5605 5604 5603 5602 5601 5602 5602 5602 5601 5602 5602 5603 5605 5606 5608 5609 5611 5612 5613 5614 5614 5614 5614 5613 5613 5612 5612 5612 5611 5609 5608 5607 5607 5607 5605 5604
5619 5616 5613 5610 5608 5606 5604 5602 5601 5599 5598 5597 5596 5595 5595 5594 5594 5594 5594 5595 5596 5597 5598 5599 5600 5600 5601 5600 5600 5600 5599 5599 5598 5597 5596 5596 5594 5593 5593 5592 5591 5590 5588
5617 5614 5611 5609 5606 5603 5601 5599 5597 5596 5593 5592 5590 5589 5588 5587 5586 5586 5585 5586 5586 5586 5587 5587 5587 5588 5588 5588 5587 5587 5586 5584 5584 5583 5582 5581 5581 5580 5579 5577 5576 5575 5574
5615 5612 5609 5606 5604 5601 5598 5595 5593 5591 5589 5587 5585 5583 5581 5580 5578 5577 5576 5575 5575 5575 5575 5575 5575 5576 5576 5575 5574 5573 5572 5570 5569 5568 5567 5567 5567 5566 5565 5564 5562 5559 5559
5612 5609 5606 5603 5600 5597 5594 5591 5588 5586 5583 5581 5579 5577 5574 5572 5570 5568 5566 5564 5564 5564 5564 5564 5564 5564 5563 5563 5562 5560 5558 5557 5556 5555 5555 5555 5553 5551 5550 5549 5547 5546 5545
5609 5606 5603 5600 5596 5593 5590 5587 5584 5581 5578 5576 5573 5570 5567 5564 5561 5558 5556 5554 5553 5553 5552 5552 5551 5551 5551 5550 5548 5547 5546 5544 5543 5542 5541 5540 5539 5538 5536 5535 5533 5531 5530
5605 5602 5599 5595 5592 5589 5586 5582 5579 5576 5572 5569 5566 5562 5558 5555 5552 5549 5546 5544 5543 5542 5541 5540 5539 5539 5538 5536 5534 5533 5533 5533 5531 5529 5528 5527 5526 5524 5523 5521 5520 5518 5517
5600 5597 5594 5590 5587 5583 5580 5576 5573 5569 5566 5562 5558 5554 5550 5546 5543 5539 5537 5534 5533 5532 5530 5529 5528 5526 5525 5523 5521 5521 5521 5520 5518 5517 5515 5514 5513 5512 5511 5509 5508 5506 5504
5594 5591 5588 5585 5581 5577 5574 5570 5566 5562 5558 5554 5550 5545 5541 5537 5533 5530 5527 5524 5523 5521 5520 5518 5517 5515 5513 5511 5510 5509 5507 5506 5505 5503 5502 5502 5501 5500 5499 5497 5496 5494 5492
5588 5584 5581 5577 5574 5570 5566 5562 5558 5553 5549 5545 5541 5537 5532 5528 5524 5521 5518 5515 5512 5511 5509 5508 5506 5504 5502 5500 5499 5497 5496 5494 5493 5492 5491 5490 5489 5488 5487 5485 5484 5482 5481
5580 5577 5573 5570 5566 5562 5558 5553 5549 5544 5540 5535 5531 5526 5523 5519 5515 5511 5508 5505 5503 5501 5499 5497 5495 5493 5491 5490 5488 5486 5485 5483 5482 5481 5480 5479 5478 5476 5474 5473 5472 5471 5470
5572 5568 5564 5561 5557 5553 5548 5544 5539 5534 5529 5525 5520 5516 5512 5509 5505 5501 5497 5495 5493 5491 5489 5487 5485 5483 5481 5479 5477 5476 5474 5473 5472 5471 5469 5468 5467 5465 5464 5462 5461 5460 5458
5563 5559 5555 5551 5547 5543 5538 5533 5528 5523 5518 5514 5509 5506 5502 5498 5494 5491 5488 5485 5483 5481 5479 5477 5475 5473 5471 5469 5467 5466 5465 5464 5462 5461 5459 5458 5456 5455 5453 5451 5450 5449 5448
5552 5548 5544 5540 5536 5531 5527 5522 5517 5513 5508 5503 5499 5495 5491 5488 5484 5481 5478 5475 5473 5471 5468 5467 5465 5463 5461 5459 5457 5456 5455 5454 5452 5450 5449 5447 5446 5444 5443 5442 5441 5440 5439
5541 5537 5533 5528 5523 5519 5514 5510 5505 5501 5497 5493 5488 5484 5480 5476 5473 5470 5467 5464 5462 5460 5458 5456 5454 5453 5451 5449 5448 5447 5445 5444 5442 5440 5439 5437 5436 5435 5433 5432 5431 5431 5431
5530 5525 5520 5516 5511 5506 5502 5497 5493 5489 5485 5481 5477 5473 5469 5465 5462 5459 5456 5454 5452 5450 5448 5446 5445 5443 5441 5440 5438 5437 5435 5434 5432 5431 5429 5428 5427 5426 5424 5423 5422 5422 5422
5518 5513 5508 5503 5498 5494 5489 5485 5481 5477 5472 5468 5465 5461 5457 5454 5451 5448 5445 5443 5441 5439 5438 5436 5435 5433 5431 5430 5428 5427 5425 5424 5423 5421 5420 5419 5418 5417 5416 5415 5414 5414 5414
5505 5500 5495 5490 5485 5481 5477 5472 5468 5464 5460 5456 5453 5450 5446 5443 5440 5437 5435 5432 5430 5429 5428 5426 5425 5423 5421 5420 5418 5417 5416 5414 5413 5412 5411 5410 5409 5408 5407 5407 5406 5406 5406
5492 5487 5482 5477 5473 5468 5464 5459 5455 5451 5448 5444 5441 5438 5435 5432 5430 5427 5424 5422 5420 5419 5417 5416 5414 5413 5411 5410 5408 5407 5406 5405 5403 5402 5401 5400 5400 5399 5399 5398 5398 5398 5398
5479 5474 5469 5464 5459 5455 5450 5446 5442 5438 5435 5432 5429 5427 5424 5421 5419 5416 5414 5412 5410 5409 5407 5406 5404 5403 5401 5400 5398 5397 5396 5395 5394 5393 5392 5392 5391 5391 5390 5390 5390 5390 5390
5465 5460 5455 5450 5445 5441 5436 5432 5429 5426 5423 5420 5418 5415 5413 5410 5408 5406 5404 5402 5400 5399 5398 5396 5395 5393 5391 5390 5389 5388 5387 5386 5385 5384 5383 5383 5383 5382 5382 5382 5382 5383 5383
5450 5445 5441 5436 5431 5427 5423 5419 5416 5413 5411 5409 5407 5404 5402 5400 5398 5396 5394 5392 5391 5390 5388 5387 5385 5384 5382 5381 5380 5379 5378 5377 5376 5375 5375 5375 5375 5375 5375 5375 5375 5375 5375
5436 5431 5427 5422 5418 5414 5410 5407 5404 5401 5399 5397 5395 5393 5391 5389 5388 5386 5384 5383 5381 5380 5379 5378 5376 5375 5374 5373 5372 5371 5370 5369 5368 5367 5367 5367 5367 5367 5367 5367 5367 5367 5368
Wind_Speed
19 19 19 21 21 22 24 25 26 27 29 30 31 32 34 36 39 41 43 45 47 48 47 48 48 49 48 50 51 51 52 53 54 53 52 52 53 54 54 53 53 52 52
16 17 17 17 17 18 20 22 24 26 27 29 30 30 31 33 36 38 40 44 46 46 45 46 48 49 49 50 51 52 52 52 53 53 53 53 54 54 54 54 54 52 52
14 14 14 15 15 16 18 19 20 22 24 27 28 29 30 31 33 35 38 41 42 42 43 45 46 48 48 49 50 51 52 53 53 54 54 54 54 54 53 53 54 53 52
13 13 13 14 14 15 16 16 17 18 20 22 24 25 27 29 31 33 36 38 39 41 42 43 44 45 46 47 48 50 50 52 52 52 52 52 51 51 52 52 52 52 51
13 13 13 12 13 14 14 15 16 18 19 20 22 23 26 27 29 30 31 34 37 39 39 40 42 44 45 46 47 48 49 50 50 49 49 49 48 47 48 48 49 49 48
13 13 13 13 13 14 14 15 16 17 18 20 22 24 26 26 28 29 30 33 35 37 39 41 42 44 44 45 46 47 46 47 47 47 47 47 46 46 46 46 47 47 46
13 13 14 14 15 16 16 17 18 19 20 22 23 24 25 27 28 29 31 33 35 36 37 39 41 43 43 44 44 44 44 44 45 45 45 44 44 44 45 44 45 45 44
15 15 15 16 17 18 18 19 20 21 21 22 24 25 27 28 29 30 31 33 34 36 38 38 40 41 41 42 43 42 42 42 43 44 44 44 44 43 44 44 45 45 44
18 18 19 18 19 20 20 21 22 22 23 25 26 28 29 28 29 30 31 32 34 36 37 37 38 38 39 40 41 41 41 41 42 42 43 43 44 44 44 45 45 45 44
20 21 21 21 21 22 23 24 25 25 27 28 29 30 30 30 30 30 31 32 33 33 34 36 37 38 39 40 40 40 40 40 40 41 42 41 41 42 42 43 43 42 42
23 23 23 23 24 25 26 26 27 28 28 30 30 31 31 31 32 32 31 32 32 33 34 35 36 37 38 38 39 39 39 39 39 40 40 40 40 40 40 40 40 41 41
26 27 27 27 27 27 28 29 29 30 30 31 32 31 31 31 32 32 32 32 33 33 34 35 36 36 36 37 37 37 37 37 38 38 38 38 39 39 39 39 40 41 41
28 29 29 30 30 30 31 31 32 32 32 33 32 32 32 32 32 33 33 33 33 33 33 34 34 34 34 34 35 35 35 36 36 36 36 36 37 38 39 40 40 40 40
30 31 31 32 32 33 33 33 34 35 35 35 34 33 33 33 33 34 34 33 33 33 33 33 33 33 33 34 34 34 34 34 34 34 34 35 35 36 37 38 38 37 37
33 33 33 33 34 34 35 36 37 37 37 36 35 35 34 34 34 34 33 33 33 33 32 33 33 33 32 33 34 34 33 33 34 34 33 34 34 34 35 35 35 35 35
34 35 35 36 36 38 38 39 39 38 37 36 36 35 35 35 35 35 34 34 34 34 34 34 33 33 32 33 33 33 33 34 34 34 34 33 33 33 33 33 33 33 33
36 36 37 39 40 40 41 40 39 39 38 37 37 37 37 36 36 35 35 35 34 34 34 34 33 33 32 32 33 33 33 33 34 34 34 33 33 32 31 31 31 30 30
38 39 40 41 41 41 41 40 40 39 39 39 38 38 38 37 37 36 35 35 34 34 34 33 33 33 33 32 32 33 33 33 33 33 33 32 32 31 30 30 30 30 29
39 40 41 41 41 41 40 40 40 40 39 39 39 39 38 38 38 37 36 35 34 34 33 33 33 33 33 33 33 33 33 33 32 31 31 31 31 30 29 29 30 30 30
40 41 41 41 41 40 40 40 40 39 39 39 39 38 37 37 37 36 36 35 34 34 34 34 34 33 32 32 33 33 33 32 31 31 31 31 30 30 29 28 28 28 28
41 41 42 41 41 41 41 41 41 40 39 38 38 38 38 37 36 35 35 34 34 34 33 34 34 33 33 32 33 32 32 31 31 31 30 30 30 29 29 28 27 27 27
42 42 42 42 42 42 41 41 42 41 39 38 37 37 38 37 36 35 34 34 33 33 32 32 32 32 32 32 31 31 31 30 30 30 30 29 29 29 28 27 27 26 26
44 44 44 43 43 43 43 42 42 40 39 37 37 37 37 36 35 34 33 33 32 31 31 31 30 30 30 30 30 29 29 29 29 28 28 28 27 27 27 26 25 25 25
45 44 44 44 44 44 43 42 40 39 38 37 36 36 35 34 34 33 32 32 31 31 30 30 30 29 28 28 28 28 27 27 28 27 27 26 26 26 26 25 24 23 24
45 45 45 45 44 43 42 40 39 37 37 36 35 35 34 33 33 32 31 30 30 29 29 29 28 28 27 26 26 26 26 26 26 25 25 25 25 25 25 25 24 24 24
45 45 45 44 44 43 41 39 38 36 35 35 35 34 34 33 32 31 30 29 28 28 28 27 27 25 25 24 24 24 24 24 23 24 23 23 23 23 23 24 23 23 22
Wind_Direction
291 285 279 275 271 266 264 263 261 259 258 260 261 258 256 254 252 251 253 253 254 253 252 253 253 255 258 260 261 262 263 264 266 265 267 267 268 269 270 272 273 274 274
296 290 286 282 276 271 269 267 265 263 263 263 263 261 259 257 254 253 253 254 256 254 254 255 255 256 259 261 262 264 264 266 267 266 267 267 268 269 270 271 272 273 273
301 297 294 290 284 280 278 276 273 269 267 267 267 264 262 261 259 255 255 255 257 257 257 258 256 257 259 262 264 266 266 267 268 268 268 268 269 269 269 270 270 271 273
310 308 305 300 294 290 287 285 282 277 275 272 269 267 266 266 263 260 259 257 257 259 258 258 258 258 261 264 266 267 268 269 270 270 270 270 271 271 270 270 271 272 273
318 315 314 309 305 303 296 292 289 285 282 278 275 272 274 272 268 267 266 261 259 259 261 260 259 261 263 266 268 269 270 270 270 270 271 271 271 272 272 272 273 274 274
317 315 312 314 314 311 302 296 295 294 288 284 283 280 279 275 272 271 267 264 265 265 265 263 263 264 266 269 271 272 273 272 270 271 271 270 271 272 273 273 275 275 275
318 316 313 312 313 311 306 303 301 298 294 289 287 286 285 283 279 276 272 270 267 268 268 267 266 266 268 271 272 274 275 274 272 271 270 270 272 272 272 273 275 275 277
317 315 313 311 313 312 311 308 304 301 299 297 295 292 291 286 282 279 277 276 272 270 269 268 267 267 269 271 273 273 274 274 274 272 272 272 272 272 271 272 274 276 277
315 315 313 309 309 310 310 308 304 301 300 300 298 297 294 290 286 283 283 279 275 273 272 270 269 270 271 273 274 274 273 273 274 274 275 274 272 271 272 274 275 275 276
311 312 313 312 309 307 307 307 305 303 302 303 302 299 295 292 289 288 285 281 278 278 276 273 272 273 273 274 274 273 272 273 274 275 275 275 274 272 273 275 276 276 277
307 308 310 310 309 308 307 306 305 303 302 302 302 300 296 294 293 292 288 284 282 281 279 277 276 276 275 275 274 273 273 274 276 276 276 275 273 273 273 274 275 277 278
302 303 304 305 306 305 306 306 306 304 302 302 301 300 297 296 295 293 290 286 283 281 279 278 278 278 277 277 276 276 275 275 276 276 275 274 273 273 272 274 275 277 279
301 300 300 301 302 303 303 304 304 304 302 302 301 299 298 297 295 293 290 286 284 282 281 280 281 281 279 278 277 277 276 276 277 277 276 275 274 274 273 273 276 278 278
301 301 300 300 300 301 301 302 302 303 303 301 300 299 299 297 296 294 290 286 284 282 282 282 282 282 280 279 278 278 277 277 278 278 278 277 276 275 275 275 276 277 279
301 301 301 301 300 300 301 301 302 302 302 301 299 299 299 298 297 296 293 287 284 282 282 282 282 281 281 281 280 278 277 277 278 279 278 277 277 276 275 275 276 277 280
300 300 300 301 301 301 301 301 301 300 300 300 298 297 297 296 295 294 291 287 285 283 283 283 283 282 281 281 281 279 278 278 278 279 279 278 278 278 276 275 275 278 280
299 299 299 300 300 301 300 300 299 299 299 299 298 296 295 294 293 291 289 286 284 283 283 283 283 283 282 282 282 280 279 279 279 279 279 278 278 277 276 275 275 277 279
298 299 299 299 299 299 299 298 298 298 297 297 297 296 294 292 291 290 288 285 284 284 283 283 283 283 282 281 281 281 280 280 280 280 279 279 279 279 277 275 273 273 276
299 299 299 299 298 298 298 298 298 298 297 296 296 295 294 292 291 290 288 285 284 283 282 282 282 282 281 280 280 280 280 280 280 280 279 279 279 279 279 277 274 272 273
299 299 299 299 298 297 297 298 298 298 297 296 295 293 293 292 292 290 288 286 284 282 281 281 282 282 281 280 280 280 281 281 279 279 278 278 278 279 278 277 275 273 273
299 299 300 300 299 298 297 297 297 296 295 295 293 292 292 292 291 290 288 286 284 282 281 281 282 280 280 281 280 280 280 280 280 280 279 279 278 277 276 276 274 273 272
298 298 299 299 298 298 297 296 296 295 293 292 292 291 291 291 290 289 288 287 285 283 282 282 282 281 280 280 280 280 280 280 280 280 280 279 277 276 274 273 274 274 273
298 298 298 297 297 297 297 296 295 293 291 290 290 290 290 290 289 289 288 286 284 284 284 283 283 282 281 279 279 279 279 279 279 279 279 279 276 274 273 272 273 273 272
298 299 298 297 296 296 296 296 294 291 289 289 290 290 291 290 289 288 287 285 284 284 284 284 283 283 282 280 280 280 279 278 278 279 278 277 276 274 272 271 272 273 272
298 298 298 297 296 296 295 294 292 290 288 288 288 289 289 290 289 288 286 285 284 285 284 284 284 284 283 282 281 280 280 279 279 278 277 276 276 274 271 270 269 268 267
298 298 298 297 297 296 294 292 290 288 287 287 287 287 287 287 286 286 285 284 283 283 284 284 284 284 283 282 281 281 281 281 280 279 277 276 276 273 270 269 268 266 265